| time (UTC) | temp C | wind direction | speed KPH | gust KPH | rain 1hr cm | rain 24hr cm | rain mn cm | humidity % | barometer mb |
| 20260903060015 | 23 | 205 | 0.0 | 0.0 | 0.00 | 0.00 | 0.00 | 93 | 1014.8 |
| 20260903054522 | 23 | 205 | 0.0 | 0.0 | 0.00 | 0.00 | 0.00 | 92 | 1014.8 |
| 20260903053018 | 23 | 205 | 0.0 | 0.0 | 0.00 | 0.00 | 0.00 | 92 | 1014.9 |
| 20260903051528 | 23 | 205 | 0.0 | 1.6 | 0.00 | 0.00 | 0.00 | 92 | 1014.7 |
| 20260903050006 | 23 | 205 | 0.0 | 0.0 | 0.00 | 0.00 | 0.00 | 91 | 1014.6 |
| 20260903044509 | 24 | 205 | 0.0 | 0.0 | 0.00 | 0.00 | 0.00 | 90 | 1014.5 |
| 20260903043021 | 25 | 205 | 0.0 | 1.6 | 0.00 | 0.00 | 0.00 | 89 | 1014.4 |
| 20260903041523 | 25 | 205 | 0.0 | 6.4 | 0.00 | 0.00 | 0.00 | 89 | 1014.4 |
| 20260903040028 | 25 | 205 | 1.6 | 6.4 | 0.00 | 0.00 | 0.00 | 88 | 1014.4 |
| 20260903034531 | 25 | 211 | 3.2 | 11.3 | 0.00 | 0.00 | 0.00 | 88 | 1014.2 |
| 20260903033015 | 25 | 211 | 3.2 | 11.3 | 0.00 | 0.00 | 0.00 | 88 | 1013.9 |
| 20260903031515 | 25 | 195 | 3.2 | 11.3 | 0.00 | 0.00 | 0.00 | 89 | 1014.0 |
| 20260903030028 | 24 | 221 | 0.0 | 0.0 | 0.00 | 0.00 | 0.00 | 89 | 1014.0 |
| 20260903024530 | 24 | 192 | 0.0 | 0.0 | 0.00 | 0.00 | 0.00 | 91 | 1013.8 |
| 20260903023039 | 23 | 192 | 0.0 | 0.0 | 0.00 | 0.00 | 0.00 | 91 | 1013.9 |
| 20260903021518 | 23 | 168 | 0.0 | 0.0 | 0.00 | 0.00 | 0.00 | 90 | 1014.3 |
| 20260903020020 | 23 | 168 | 0.0 | 0.0 | 0.00 | 0.00 | 0.00 | 90 | 1014.6 |
| 20260903014524 | 24 | 168 | 0.0 | 0.0 | 0.00 | 0.00 | 0.00 | 89 | 1014.4 |
| 20260903013031 | 25 | 168 | 0.0 | 1.6 | 0.00 | 0.00 | 0.00 | 88 | 1014.3 |
| 20260903011529 | 25 | 168 | 0.0 | 1.6 | 0.00 | 0.00 | 0.00 | 86 | 1014.3 |
| 20260903010017 | 25 | 168 | 0.0 | 1.6 | 0.00 | 0.00 | 0.00 | 85 | 1014.1 |
| 20260903004525 | 26 | 168 | 0.0 | 6.4 | 0.00 | 0.00 | 0.00 | 83 | 1013.9 |
| 20260903003027 | 26 | 168 | 0.0 | 1.6 | 0.00 | 0.00 | 0.00 | 81 | 1013.7 |
| 20260903001530 | 27 | 168 | 0.0 | 3.2 | 0.00 | 0.00 | 0.00 | 78 | 1013.6 |
| 20260903000044 | 27 | 169 | 1.6 | 6.4 | 0.00 | 0.00 | 0.00 | 76 | 1013.7 |
| 20260902234523 | 28 | 169 | 1.6 | 8.0 | 0.00 | 0.00 | 0.00 | 73 | 1013.9 |
| 20260902233007 | 29 | 217 | 3.2 | 8.0 | 0.00 | 0.00 | 0.00 | 70 | 1013.9 |
| 20260902231506 | 30 | 208 | 4.8 | 12.9 | 0.00 | 0.00 | 0.00 | 68 | 1014.0 |
| 20260902230005 | 30 | 216 | 4.8 | 12.9 | 0.00 | 0.00 | 0.00 | 67 | 1014.0 |
| 20260902224509 | 31 | 169 | 4.8 | 12.9 | 0.00 | 0.00 | 0.00 | 66 | 1014.0 |
| 20260902223009 | 31 | 186 | 4.8 | 12.9 | 0.00 | 0.00 | 0.00 | 65 | 1013.9 |
| 20260902221505 | 32 | 220 | 4.8 | 12.9 | 0.00 | 0.00 | 0.00 | 63 | 1014.1 |
| 20260902220008 | 32 | 218 | 4.8 | 16.1 | 0.00 | 0.00 | 0.00 | 62 | 1014.0 |
| 20260902214510 | 32 | 222 | 4.8 | 16.1 | 0.00 | 0.00 | 0.00 | 61 | 1014.1 |
| 20260902213005 | 32 | 248 | 4.8 | 16.1 | 0.00 | 0.00 | 0.00 | 60 | 1014.2 |
| 20260902211509 | 32 | 243 | 4.8 | 19.3 | 0.00 | 0.00 | 0.00 | 59 | 1014.3 |
| 20260902210006 | 33 | 202 | 3.2 | 14.5 | 0.00 | 0.00 | 0.00 | 60 | 1014.4 |
| 20260902204507 | 33 | 173 | 4.8 | 14.5 | 0.00 | 0.00 | 0.00 | 60 | 1014.4 |
| 20260902203008 | 32 | 285 | 4.8 | 14.5 | 0.00 | 0.00 | 0.00 | 62 | 1014.7 |
| 20260902201508 | 32 | 198 | 4.8 | 12.9 | 0.00 | 0.00 | 0.00 | 61 | 1014.7 |
| 20260902200008 | 32 | 209 | 6.4 | 19.3 | 0.00 | 0.00 | 0.00 | 60 | 1014.9 |
| 20260902194505 | 33 | 188 | 6.4 | 22.5 | 0.00 | 0.00 | 0.00 | 57 | 1015.0 |
| 20260902193010 | 33 | 193 | 4.8 | 14.5 | 0.00 | 0.00 | 0.00 | 59 | 1015.1 |
| 20260902191508 | 33 | 211 | 4.8 | 19.3 | 0.00 | 0.00 | 0.00 | 60 | 1015.3 |
| 20260902190012 | 32 | 244 | 6.4 | 19.3 | 0.00 | 0.00 | 0.00 | 58 | 1015.4 |
| 20260902184512 | 33 | 209 | 6.4 | 20.9 | 0.00 | 0.00 | 0.00 | 61 | 1015.4 |
| 20260902183012 | 32 | 242 | 8.0 | 19.3 | 0.00 | 0.00 | 0.00 | 62 | 1015.6 |
| 20260902181510 | 32 | 244 | 6.4 | 17.7 | 0.00 | 0.00 | 0.00 | 62 | 1015.8 |
| 20260902180017 | 32 | 227 | 4.8 | 17.7 | 0.00 | 0.00 | 0.00 | 66 | 1015.9 |
| 20260902174520 | 32 | 221 | 8.0 | 17.7 | 0.00 | 0.00 | 0.00 | 65 | 1016.0 |
| 20260902173013 | 32 | 252 | 6.4 | 14.5 | 0.00 | 0.00 | 0.00 | 67 | 1016.2 |
| 20260902171514 | 32 | 255 | 4.8 | 22.5 | 0.00 | 0.00 | 0.00 | 65 | 1016.3 |
| 20260902170017 | 32 | 188 | 6.4 | 19.3 | 0.00 | 0.00 | 0.00 | 66 | 1016.3 |
| 20260902164523 | 32 | 205 | 4.8 | 12.9 | 0.00 | 0.00 | 0.00 | 66 | 1016.4 |
| 20260902163015 | 31 | 197 | 9.7 | 17.7 | 0.00 | 0.00 | 0.00 | 66 | 1016.5 |
| 20260902161523 | 31 | 256 | 3.2 | 14.5 | 0.00 | 0.00 | 0.00 | 69 | 1016.7 |
| 20260902160015 | 31 | 230 | 3.2 | 11.3 | 0.00 | 0.00 | 0.00 | 73 | 1016.7 |
| 20260902154521 | 31 | 208 | 4.8 | 11.3 | 0.00 | 0.00 | 0.00 | 69 | 1016.7 |
| 20260902153027 | 30 | 236 | 3.2 | 11.3 | 0.00 | 0.00 | 0.00 | 71 | 1016.7 |
| 20260902151520 | 30 | 192 | 3.2 | 11.3 | 0.00 | 0.00 | 0.00 | 72 | 1016.8 |
| 20260902150021 | 30 | 157 | 1.6 | 9.7 | 0.00 | 0.00 | 0.00 | 75 | 1016.7 |
| 20260902144520 | 28 | 194 | 3.2 | 9.7 | 0.00 | 0.00 | 0.00 | 76 | 1016.7 |
| 20260902143004 | 28 | 243 | 3.2 | 9.7 | 0.00 | 0.00 | 0.00 | 80 | 1016.6 |
| 20260902141529 | 27 | 265 | 0.0 | 6.4 | 0.00 | 0.00 | 0.00 | 85 | 1016.6 |
| 20260902140009 | 26 | 244 | 0.0 | 4.8 | 0.00 | 0.00 | 0.00 | 87 | 1016.5 |
| 20260902134512 | 26 | 207 | 0.0 | 3.2 | 0.00 | 0.00 | 0.00 | 89 | 1016.4 |
| 20260902133022 | 25 | 5 | 0.0 | 4.8 | 0.00 | 0.00 | 0.00 | 93 | 1016.7 |
| 20260902131504 | 24 | 188 | 0.0 | 1.6 | 0.00 | 0.00 | 0.00 | 96 | 1016.7 |
| 20260902130029 | 23 | 188 | 0.0 | 3.2 | 0.00 | 0.00 | 0.00 | 96 | 1016.6 |
| 20260902124510 | 23 | 188 | 1.6 | 4.8 | 0.00 | 0.00 | 0.00 | 97 | 1016.5 |
| 20260902123018 | 22 | 230 | 1.6 | 6.4 | 0.00 | 0.00 | 0.00 | 97 | 1016.5 |
| 20260902121523 | 22 | 200 | 0.0 | 4.8 | 0.00 | 0.00 | 0.00 | 97 | 1016.5 |
| 20260902120004 | 21 | 200 | 0.0 | 4.8 | 0.00 | 0.00 | 0.00 | 97 | 1016.4 |
| 20260902114510 | 20 | 237 | 0.0 | 0.0 | 0.00 | 0.00 | 0.00 | 97 | 1016.2 |
| 20260902113016 | 20 | 237 | 0.0 | 0.0 | 0.00 | 0.00 | 0.00 | 96 | 1016.3 |
| 20260902111517 | 20 | 237 | 0.0 | 0.0 | 0.00 | 0.00 | 0.00 | 97 | 1016.2 |
| 20260902110028 | 21 | 237 | 0.0 | 0.0 | 0.00 | 0.00 | 0.00 | 96 | 1016.4 |
| 20260902104506 | 21 | 237 | 0.0 | 0.0 | 0.00 | 0.00 | 0.00 | 97 | 1016.4 |
| 20260902103013 | 21 | 237 | 0.0 | 0.0 | 0.00 | 0.00 | 0.00 | 97 | 1016.5 |
| 20260902101521 | 20 | 237 | 0.0 | 0.0 | 0.00 | 0.00 | 0.00 | 96 | 1016.3 |
| 20260902100024 | 21 | 237 | 0.0 | 0.0 | 0.00 | 0.00 | 0.00 | 96 | 1016.2 |
| 20260902094534 | 20 | 237 | 0.0 | 0.0 | 0.00 | 0.00 | 0.00 | 96 | 1016.1 |
| 20260902093011 | 21 | 237 | 0.0 | 0.0 | 0.00 | 0.00 | 0.00 | 96 | 1015.9 |
| 20260902091514 | 21 | 237 | 0.0 | 0.0 | 0.00 | 0.00 | 0.00 | 96 | 1015.8 |
| 20260902090020 | 21 | 237 | 0.0 | 0.0 | 0.00 | 0.00 | 0.00 | 96 | 1015.9 |
| 20260902084526 | 21 | 237 | 0.0 | 0.0 | 0.00 | 0.00 | 0.00 | 96 | 1015.7 |
| 20260902083039 | 21 | 237 | 0.0 | 0.0 | 0.00 | 0.00 | 0.00 | 96 | 1015.8 |
| 20260902081520 | 21 | 237 | 0.0 | 0.0 | 0.00 | 0.00 | 0.00 | 96 | 1015.6 |
| 20260902080018 | 22 | 237 | 0.0 | 4.8 | 0.00 | 0.00 | 0.00 | 96 | 1015.6 |
| 20260902074528 | 21 | 237 | 0.0 | 3.2 | 0.00 | 0.00 | 0.00 | 96 | 1015.5 |
| 20260902073030 | 22 | 237 | 0.0 | 3.2 | 0.00 | 0.00 | 0.00 | 96 | 1015.6 |
| 20260902071529 | 22 | 237 | 0.0 | 3.2 | 0.00 | 0.00 | 0.00 | 96 | 1015.6 |
| 20260902070016 | 21 | 237 | 0.0 | 3.2 | 0.00 | 0.00 | 0.00 | 96 | 1015.5 |
| 20260902064518 | 21 | 237 | 1.6 | 3.2 | 0.00 | 0.00 | 0.00 | 96 | 1015.7 |
| 20260902063024 | 21 | 237 | 0.0 | 1.6 | 0.00 | 0.00 | 0.00 | 96 | 1015.5 |
| 20260902061542 | 21 | 237 | 0.0 | 1.6 | 0.00 | 0.00 | 0.00 | 96 | 1015.7 |